STARLINK-35273

Last updated on Mon Oct 20 2025 00:02:07 GMT+0000 (Coordinated Universal Time)

1 65805U 25218Q 25292.26191095 .00061529 00000+0 11229-2 0 9994 2 65805 97.6027 152.8400 0001434 96.3738 263.7676 15.49221180 3648
UTC large
Height (km)
Speed (km/s)
/
Latitude / Longitude
Inclination (degrees)
Orbital Period (minutes)
Azimuth
Elevation
Range (km)
Doppler Factor

Next 0 passes for location: London (51.5072 / 0.1276)

Sorry there are no passes over London.